This is the latest recevied weather packets stored in our database for station/object N5YHM-13. If no packets are shown the sender has not sent any weather packets the latest 10 day(s).
| Time | Temp. | Humidity | Pressure | Rain* | Wind** | Luminosity | Snow |
|---|---|---|---|---|---|---|---|
| 1778195584 | 23.89° C | 86% | 1015.4 hPa | 0 mm | - | 8 W/m² | - |
| 1778195281 | 23.89° C | 86% | 1015.8 hPa | 0 mm | - | 7 W/m² | - |
| 1778194978 | 23.89° C | 86% | 1015.7 hPa | 0 mm | - | 8 W/m² | - |
| 1778194678 | 23.89° C | 86% | 1015.7 hPa | 0 mm | - | 7 W/m² | - |
| 1778194369 | 23.89° C | 86% | 1015.7 hPa | 0 mm | - | 8 W/m² | - |
| 1778194065 | 23.89° C | 85% | 1015.8 hPa | 0 mm | - | 8 W/m² | - |
| 1778193762 | 24.44° C | 86% | 1015.8 hPa | 0 mm | - | 8 W/m² | - |
| 1778193457 | 24.44° C | 86% | 1015.6 hPa | 0 mm | - | 7 W/m² | - |
| 1778193154 | 24.44° C | 86% | 1015.7 hPa | 0 mm | - | 8 W/m² | - |
| 1778192851 | 23.89° C | 85% | 1015.5 hPa | 0 mm | - | 8 W/m² | - |
| 1778192547 | 24.44° C | 85% | 1015.8 hPa | 0 mm | - | 8 W/m² | - |
| 1778192244 | 23.89° C | 85% | 1016 hPa | 0 mm | - | 8 W/m² | - |
| 1778191940 | 24.44° C | 86% | 1015.4 hPa | 0 mm | - | 7 W/m² | - |
| 1778191637 | 24.44° C | 86% | 1015.5 hPa | 0 mm | - | 8 W/m² | - |
| 1778191335 | 23.89° C | 86% | 1015.5 hPa | 0 mm | - | 9 W/m² | - |
| 1778191031 | 23.89° C | 86% | 1015.5 hPa | 0 mm | - | 8 W/m² | - |
| 1778190729 | 24.44° C | 87% | 1015.4 hPa | 0 mm | - | 6 W/m² | - |
| 1778190426 | 24.44° C | 87% | 1015.6 hPa | 0 mm | - | 5 W/m² | - |
| 1778190123 | 24.44° C | 86% | 1015.5 hPa | 0 mm | - | 7 W/m² | - |
| 1778189818 | 24.44° C | 86% | 1015.5 hPa | 0 mm | - | 9 W/m² | - |
| 1778189516 | 24.44° C | 85% | 1015.2 hPa | 0 mm | - | 12 W/m² | - |
| 1778189212 | 25° C | 85% | 1015.1 hPa | 0 mm | - | 14 W/m² | - |
| 1778188909 | 24.44° C | 85% | 1015.3 hPa | 0 mm | - | 13 W/m² | - |
| 1778188606 | 24.44° C | 85% | 1015.2 hPa | 0 mm | - | 15 W/m² | - |
| 1778188301 | 25° C | 84% | 1015.3 hPa | 0 mm | - | 15 W/m² | - |
* Rain latest hour (hover to see other rain measurements)
** Current wind speed in m/s (hover to see current wind gust speed)